GFSFLT2_sfc_temp_000.txt.gz
Temp
70 70 70 69 69 69 69 70 70 70 70 70 70 70 70 70 70 70 70 69 69 69 69 69 69 68 68 67 66 67 62 62
66 67 67 67 67 68 68 69 69 69 69 69 69 69 70 70 70 70 70 70 70 70 69 69 68 67 67 66 66 66 61 61
65 65 65 65 65 68 69 69 69 69 69 69 67 65 65 67 67 68 69 69 69 69 68 68 67 67 66 66 67 60 60 61
67 66 65 64 72 66 65 67 66 66 66 65 64 64 64 67 67 68 68 68 68 68 67 67 66 60 60 63 59 59 59 61
68 68 66 65 68 64 63 64 64 64 65 64 64 65 63 63 62 62 62 65 62 63 62 61 60 59 59 59 60 60 57 59
70 68 67 65 65 63 64 64 63 63 64 65 63 62 61 61 61 61 60 60 60 60 60 60 59 60 60 60 60 59 58 59
69 67 67 67 67 66 65 65 66 65 65 66 63 63 62 61 61 61 60 60 59 59 59 60 60 61 60 60 60 60 60 59
67 67 67 70 68 66 65 64 63 65 64 65 66 63 61 61 60 61 60 59 60 59 59 59 59 59 60 60 60 60 60 60
68 67 67 67 69 68 66 63 64 63 63 63 64 63 62 61 59 59 59 60 60 59 59 58 58 59 58 59 59 60 58 59
67 69 67 65 67 65 66 65 62 61 61 61 63 63 62 59 59 59 58 58 58 57 57 57 56 55 55 56 57 58 59 59
67 64 65 64 65 62 61 61 61 62 61 61 63 63 63 61 59 59 59 57 56 56 55 54 53 54 57 57 56 56 56 61
62 63 63 61 61 59 58 58 60 60 60 62 62 61 61 59 59 57 57 55 54 54 53 53 52 51 59 56 53 54 55 53
59 60 62 63 57 57 55 56 58 59 58 59 60 60 59 57 55 55 54 53 52 52 51 50 51 50 49 54 51 53 52 51
58 58 59 59 57 56 57 56 56 57 60 61 59 57 58 58 53 52 52 51 50 49 49 48 49 49 47 45 46 52 49 51
60 59 58 58 58 57 56 56 57 56 56 55 56 55 55 54 52 51 50 50 48 48 48 47 45 46 46 45 40 38 40 46
59 60 60 59 58 56 55 52 52 52 51 51 51 52 53 53 52 50 49 48 47 47 49 45 45 42 44 48 44 42 41 40
57 59 59 59 58 56 53 52 51 50 49 49 50 50 51 51 50 48 48 47 46 45 45 44 43 42 41 41 41 41 44 39
56 58 59 58 56 55 54 52 50 48 47 47 47 48 49 48 49 46 45 44 43 42 42 42 41 40 39 40 39 38 37 36
57 58 59 58 55 52 51 49 48 47 47 49 49 49 48 46 45 44 43 43 43 42 41 40 40 39 39 40 40 39 39 38
55 54 53 52 51 50 50 50 51 52 52 47 49 46 45 44 44 44 44 44 42 41 40 39 38 37 36 36 36 37 37 36

GFSFLT2_sfc_temp_003.txt.gz
Temp
72 72 71 70 69 69 69 70 70 70 70 70 70 69 69 70 70 70 70 69 70 70 69 69 69 68 68 67 66 66 60 59
69 67 67 66 66 68 68 69 69 69 69 69 68 69 69 70 69 69 70 70 70 70 69 69 69 68 67 66 66 65 59 59
64 65 65 64 65 67 68 69 69 68 68 68 66 64 64 65 67 68 69 68 69 69 68 68 67 67 66 66 65 58 58 59
63 63 63 64 69 65 64 66 65 64 65 65 64 63 63 65 66 67 68 68 68 68 68 67 66 59 59 63 58 58 58 58
65 63 63 63 65 63 62 63 63 63 64 63 63 64 62 62 61 61 61 64 61 63 62 61 60 59 58 58 58 58 57 58
67 64 63 62 63 63 63 63 62 63 63 64 61 61 60 59 59 59 59 58 58 59 58 59 58 59 58 58 58 57 57 58
67 65 65 64 63 62 62 62 64 64 63 63 62 61 60 59 59 59 58 58 58 58 58 58 58 58 58 58 58 58 58 58
66 67 65 65 62 62 62 62 63 63 63 62 63 61 59 59 59 59 58 57 57 57 57 56 56 56 58 58 58 57 58 58
65 64 64 63 64 63 61 61 63 61 61 63 63 61 59 59 58 58 57 57 57 56 55 55 55 56 55 56 57 58 57 57
66 67 63 63 62 60 59 59 58 59 59 59 61 62 60 58 57 57 56 55 55 54 54 54 53 52 52 54 54 55 56 59
64 65 64 62 60 59 57 57 57 58 58 58 59 59 59 56 56 54 54 54 52 52 52 52 50 50 54 52 51 51 52 56
60 60 60 58 58 56 56 56 56 56 57 58 58 58 57 56 54 53 53 52 51 50 50 50 50 49 55 53 50 51 50 48
58 58 58 58 55 55 54 53 54 54 56 56 55 55 56 53 51 51 51 50 49 49 48 48 49 47 47 51 49 49 50 48
57 57 57 57 55 53 53 53 53 57 58 57 55 54 53 54 51 50 49 48 48 47 46 46 45 45 43 42 40 46 45 49
58 57 57 57 56 55 54 54 53 53 51 50 51 52 52 51 50 48 47 46 45 45 44 43 42 43 43 41 38 35 38 43
56 58 57 58 56 55 54 53 52 49 48 48 49 50 49 50 48 47 45 44 43 44 44 41 41 39 41 46 41 39 35 35
55 57 58 57 56 54 52 50 48 47 46 47 47 47 47 48 47 47 45 43 42 41 41 40 40 38 38 38 38 38 38 36
53 55 56 56 54 52 50 48 46 45 45 46 46 46 46 47 48 45 43 42 41 40 40 40 38 38 37 40 38 38 37 36
54 53 51 50 49 48 47 46 46 47 47 46 48 48 47 45 43 42 41 42 41 40 39 38 37 35 35 35 36 35 36 34
51 51 50 50 50 49 48 49 48 48 51 50 46 44 43 42 42 42 42 42 41 40 38 37 36 34 34 34 33 34 34 34

GFSFLT2_sfc_temp_006.txt.gz
Temp
70 69 70 70 69 69 69 70 70 70 70 70 70 69 70 70 70 70 70 70 70 70 70 69 69 69 68 67 66 66 59 60
71 72 71 67 67 68 68 69 69 69 69 69 69 69 70 70 69 69 70 70 70 70 69 69 69 68 67 66 66 64 58 58
69 69 68 65 65 67 68 69 69 68 68 69 66 63 63 63 67 68 69 68 69 69 68 68 67 66 65 66 65 58 58 59
66 64 63 63 68 64 64 65 64 64 64 64 63 62 62 65 65 67 68 67 68 67 67 67 65 60 59 62 59 59 58 58
62 62 62 62 64 62 61 62 62 62 63 62 62 63 62 61 60 60 59 63 60 61 61 60 59 59 58 58 58 58 57 58
63 62 61 61 61 61 61 61 61 61 62 63 61 60 59 58 58 58 58 57 58 57 57 58 58 58 58 57 57 57 57 57
63 62 61 61 61 60 60 61 62 62 62 62 60 59 57 57 57 57 58 57 56 56 56 57 56 57 57 57 57 57 57 57
64 63 61 61 61 61 60 60 61 62 61 61 61 59 58 58 58 57 56 55 55 55 55 55 54 55 56 56 56 56 56 56
62 61 61 60 60 60 60 60 62 60 59 60 59 59 58 56 56 55 55 54 54 54 54 53 53 54 54 54 55 54 54 55
62 64 63 61 60 59 59 58 58 57 56 56 57 58 57 55 54 53 53 53 52 52 51 51 50 50 50 51 51 53 53 53
62 63 62 60 58 57 57 56 55 54 54 55 56 57 56 54 52 52 52 51 50 50 50 49 49 48 52 51 50 50 50 54
59 59 58 58 57 57 56 54 54 54 54 54 56 58 57 56 53 51 50 49 48 48 48 48 48 47 52 51 48 49 48 48
57 57 57 57 54 53 53 53 53 55 54 54 54 56 52 50 49 49 48 47 46 47 46 46 46 45 44 46 46 47 47 47
56 56 55 56 54 52 54 53 53 52 53 51 50 51 51 51 48 47 47 46 45 44 43 44 44 43 41 41 39 43 45 47
55 55 55 55 54 53 52 52 51 50 48 47 48 49 49 48 48 46 45 44 43 42 42 42 40 41 41 40 36 34 37 42
54 55 55 55 54 53 53 50 48 46 46 46 46 48 48 48 47 45 44 43 42 42 43 41 41 37 40 43 40 38 35 35
52 54 55 54 53 51 49 46 45 45 45 46 46 47 47 47 46 44 43 42 41 41 39 39 39 37 37 36 37 37 37 35
51 52 50 50 49 48 48 46 45 45 46 46 46 46 45 45 45 42 41 41 40 39 39 38 37 36 36 36 35 34 33 33
50 49 48 48 48 48 47 47 47 47 46 44 44 44 44 42 41 41 40 41 42 40 38 37 36 35 34 35 35 34 35 34
48 48 48 48 47 47 46 46 45 45 45 44 44 42 41 41 41 41 41 44 41 42 40 36 36 34 34 33 33 33 34 33

GFSFLT2_sfc_temp_009.txt.gz
Temp
75 77 74 70 69 70 69 70 70 70 70 70 70 70 70 71 71 71 71 71 71 70 70 70 70 69 68 67 66 66 76 76
75 76 76 75 75 68 69 69 69 69 70 69 69 69 70 70 69 70 70 70 70 70 70 69 69 67 67 66 66 67 76 77
73 73 73 73 74 73 70 69 69 69 70 69 69 75 74 74 70 69 69 69 69 69 69 68 67 67 66 66 66 77 76 78
70 70 70 71 73 73 73 74 76 75 75 73 75 73 74 73 70 67 67 67 68 67 67 67 69 76 76 71 76 74 75 75
70 69 70 71 73 73 74 74 73 73 72 72 73 73 74 75 75 75 74 69 74 73 73 75 72 73 73 72 73 73 74 74
70 71 70 70 72 72 72 73 72 72 73 72 72 73 73 72 75 73 71 72 71 71 73 70 70 70 70 70 70 72 73 74
71 70 69 69 69 70 70 69 70 70 71 70 72 73 72 72 71 72 71 72 71 71 71 71 70 70 70 70 69 69 70 73
70 69 69 70 69 68 66 66 65 64 64 63 66 67 69 70 69 69 69 69 70 70 69 69 69 69 68 68 67 68 69 69
68 66 68 68 66 67 65 63 61 60 62 62 62 64 66 66 68 67 66 68 68 69 68 68 68 68 67 68 68 66 67 66
69 67 67 66 65 63 61 59 60 59 60 61 65 67 66 66 67 66 67 67 67 67 66 67 66 65 65 66 66 66 65 65
67 67 65 63 60 57 57 60 62 61 61 62 63 62 63 65 65 63 63 64 64 64 64 63 62 62 64 65 65 66 65 66
64 65 63 61 59 60 61 64 63 64 62 60 63 65 63 64 63 62 64 63 62 63 61 62 60 59 62 62 63 64 65 63
64 64 63 64 63 63 63 63 62 59 65 63 62 63 63 62 63 63 62 62 60 61 62 59 60 58 59 60 61 61 60 61
63 64 65 67 68 67 66 64 63 63 62 60 61 60 61 62 61 62 61 61 59 58 58 58 58 56 54 54 53 57 60 59
64 65 66 66 65 65 64 63 63 62 61 61 61 61 63 62 61 61 60 59 58 56 55 54 54 55 53 52 48 47 49 56
64 64 65 63 63 64 63 64 62 59 60 61 62 60 60 60 59 58 57 57 54 54 54 53 52 50 53 54 51 49 44 43
61 61 61 61 61 61 61 59 59 60 60 58 58 58 58 58 57 55 54 55 52 52 51 51 52 51 50 49 48 48 48 43
59 60 59 59 60 59 59 58 58 58 57 57 57 58 58 57 55 54 53 52 52 52 51 49 50 50 51 49 47 44 43 42
58 59 57 58 57 57 56 56 56 55 55 55 54 56 57 56 53 52 52 51 50 52 51 50 50 50 48 48 48 46 46 45
57 58 56 56 56 56 56 56 56 56 54 54 54 53 54 53 52 51 50 51 51 49 50 49 49 48 47 46 47 47 46 44

GFSFLT2_sfc_temp_012.txt.gz
Temp
80 81 77 69 70 70 70 71 71 71 71 71 71 71 71 72 72 72 72 72 71 71 71 70 70 69 68 67 66 67 83 85
79 80 81 79 79 69 70 70 70 70 70 70 70 71 71 71 71 71 71 71 71 71 70 70 69 68 68 67 66 67 84 85
78 81 81 82 83 76 71 70 70 70 72 70 71 85 83 80 70 69 70 69 69 69 69 68 68 68 69 68 67 85 83 85
75 75 74 77 82 80 80 81 84 83 83 81 86 80 81 78 73 68 69 68 69 69 68 68 70 84 84 76 84 81 83 83
74 73 72 78 81 82 83 83 83 81 79 79 81 80 81 83 84 84 83 74 84 81 82 83 79 79 81 79 80 81 82 83
73 73 74 79 82 83 81 82 82 82 81 79 80 79 79 79 82 82 81 82 79 80 82 78 78 78 77 77 77 78 81 82
79 79 78 78 78 79 79 79 80 78 79 76 74 74 73 78 79 81 80 81 80 79 79 79 78 78 77 76 75 75 75 79
79 79 78 79 78 77 77 76 71 70 71 68 66 64 64 75 77 78 78 79 79 79 77 77 77 77 76 74 74 75 75 74
78 76 77 77 74 72 68 65 63 68 72 70 65 65 67 71 74 74 77 75 75 77 76 76 76 76 75 74 74 74 73 72
77 75 76 74 67 62 63 62 67 67 66 65 68 70 68 68 71 74 74 74 75 75 73 73 73 72 72 73 74 74 73 72
76 74 73 70 66 60 60 67 67 67 68 69 68 71 72 74 74 72 72 74 72 72 72 69 69 69 70 71 72 72 72 74
75 70 69 70 69 66 66 71 73 75 74 74 73 74 72 74 72 70 72 72 71 70 67 69 67 66 67 69 69 70 70 70
73 70 71 73 74 73 72 72 73 73 74 71 70 71 71 70 72 71 70 69 66 66 67 66 66 66 63 65 66 68 67 67
74 73 74 76 77 77 77 75 74 73 72 70 70 70 70 70 68 68 68 67 66 64 63 62 65 65 57 58 56 62 67 68
75 76 76 76 75 75 74 73 72 72 72 73 69 68 70 69 67 66 66 66 65 63 62 59 58 62 60 56 51 51 55 61
75 74 73 72 73 73 71 73 72 69 71 70 70 66 66 67 67 65 64 64 62 62 62 59 57 56 59 60 57 55 49 48
72 72 72 72 71 71 71 68 69 69 69 65 66 67 67 66 65 64 63 63 61 59 58 57 58 56 56 55 54 54 54 48
70 70 69 70 69 68 66 65 65 65 64 64 65 66 66 66 65 62 62 61 59 58 57 56 55 55 55 54 52 49 49 48
68 68 66 67 66 66 65 64 63 63 62 62 60 61 62 62 61 61 60 59 58 57 54 53 54 53 53 52 53 52 52 50
67 67 66 66 65 64 64 62 64 64 61 60 60 59 59 59 59 60 58 57 55 52 55 55 54 53 52 52 52 52 52 51

GFSFLT2_sfc_temp_015.txt.gz
Temp
78 78 75 69 70 70 70 70 71 71 71 71 71 72 72 72 72 72 72 72 72 72 72 71 71 70 69 68 68 68 77 86
78 78 81 79 77 69 70 70 70 70 71 71 71 71 72 72 72 72 72 71 71 71 71 70 70 70 70 69 69 69 83 86
78 78 79 79 77 73 71 70 70 70 72 71 72 82 82 80 71 70 71 70 70 70 70 69 69 69 71 70 69 84 83 84
76 78 80 82 84 81 82 82 84 83 82 82 85 81 82 81 75 71 71 70 71 71 71 70 70 84 83 76 83 81 83 83
77 77 78 83 82 84 85 84 83 81 81 82 82 82 83 82 82 84 83 74 83 81 81 83 80 80 80 79 79 80 82 82
74 75 79 82 84 85 83 83 83 83 82 82 81 81 81 80 82 82 81 82 80 81 81 80 80 80 79 77 77 78 79 79
78 79 81 80 81 82 81 79 78 78 76 74 75 77 75 75 72 78 80 81 81 80 80 79 78 78 78 77 76 76 77 78
82 82 81 82 80 78 77 77 75 74 73 74 75 75 73 70 73 76 76 75 77 77 77 75 76 78 77 77 75 76 76 75
81 80 81 80 79 75 70 64 65 69 73 72 71 72 70 68 71 70 68 73 75 75 75 76 76 77 75 75 75 75 76 74
82 81 80 79 75 70 65 66 69 69 68 68 70 71 69 70 70 72 75 75 75 74 74 73 72 72 72 73 73 74 73 73
80 78 77 75 72 69 73 73 75 73 72 74 72 74 75 75 76 74 73 75 74 73 71 70 69 69 70 71 71 72 72 73
80 78 72 72 71 73 76 76 75 76 77 77 76 76 74 75 75 72 72 73 72 70 67 69 68 68 69 67 68 70 70 70
72 71 69 72 75 75 74 74 76 76 77 74 74 74 74 72 73 72 72 70 68 68 67 64 65 67 65 64 64 66 68 70
71 73 73 78 80 79 79 78 77 77 75 73 73 72 73 72 69 69 69 68 66 65 64 62 63 64 60 59 54 59 64 65
76 77 79 80 79 78 77 76 74 74 73 74 71 70 71 70 69 68 66 66 64 64 63 61 58 61 61 57 51 50 54 60
79 79 78 77 78 78 75 76 72 72 72 72 72 71 69 70 69 67 65 64 63 63 65 60 58 56 59 61 59 56 49 47
76 77 76 76 76 75 74 71 71 71 72 68 69 70 69 69 68 65 64 63 63 61 60 59 59 57 55 55 54 55 54 50
73 74 74 74 73 71 69 67 67 67 66 65 66 66 66 66 65 63 62 62 61 61 60 58 55 54 56 55 52 50 49 49
72 72 70 71 70 69 68 66 65 64 63 63 62 62 62 62 61 61 61 61 61 60 55 53 52 52 53 52 54 52 52 50
72 71 70 69 68 67 66 65 61 64 63 62 62 61 61 61 60 60 60 60 56 54 53 52 53 54 53 52 52 52 53 52

GFSFLT2_sfc_temp_018.txt.gz
Temp
68 69 72 70 69 69 70 70 70 70 71 71 71 71 71 72 72 72 72 72 71 71 71 71 71 71 70 69 69 69 67 72
68 70 72 70 71 69 69 69 70 70 70 70 70 71 71 71 71 71 71 71 71 71 71 70 70 70 70 69 68 69 70 72
71 72 72 71 71 70 70 70 70 70 70 70 69 72 71 72 70 71 71 70 71 71 71 70 70 69 70 70 69 70 70 70
71 72 72 72 77 71 70 73 72 73 74 70 73 73 73 77 72 71 72 71 71 71 71 70 69 71 70 69 69 70 70 68
74 73 73 75 75 75 75 76 73 73 74 75 73 74 73 72 70 71 69 70 73 71 72 73 72 70 69 68 69 68 66 67
74 75 75 74 76 76 75 74 73 70 70 71 70 70 70 70 70 70 70 69 71 69 69 71 69 70 70 68 68 66 66 66
74 75 75 75 74 73 73 72 72 71 70 71 70 69 67 67 66 68 68 67 67 66 67 67 66 68 69 69 68 67 67 65
75 76 74 76 73 72 71 70 67 67 68 69 70 69 66 66 66 65 65 66 66 66 65 65 65 66 66 67 66 65 66 65
75 73 74 73 72 71 68 65 65 66 66 66 66 66 65 64 63 63 63 65 65 65 64 64 63 65 64 65 64 64 64 64
77 78 75 73 70 67 65 65 67 67 65 65 66 68 66 64 63 63 64 64 64 63 61 61 60 60 59 60 60 61 63 65
76 74 73 70 68 66 67 68 69 68 66 66 67 69 69 65 63 63 63 63 62 62 59 58 57 58 61 59 57 57 59 65
74 72 71 69 68 68 70 70 69 68 68 68 69 68 67 64 63 63 63 62 60 59 57 58 56 54 62 61 56 56 57 57
70 67 66 69 69 69 69 66 68 68 68 68 67 67 67 64 62 62 61 59 58 58 56 54 53 54 52 52 54 55 54 55
69 67 66 71 72 72 70 69 68 68 66 66 66 65 65 65 61 60 59 58 56 55 53 52 52 52 48 48 44 48 52 54
70 70 69 72 72 73 71 68 66 65 65 64 63 64 65 63 62 59 57 56 54 53 52 52 48 49 51 46 42 39 45 49
73 73 74 73 72 70 67 66 63 64 63 63 63 65 63 63 60 57 55 55 53 53 56 50 49 46 48 53 47 44 39 39
72 72 72 72 70 69 66 63 63 63 61 60 60 59 60 60 58 54 53 53 53 52 51 50 49 46 45 44 44 43 43 39
69 70 70 69 67 64 61 59 59 58 57 55 57 57 56 56 57 53 53 52 52 52 51 49 47 45 45 46 43 40 40 38
68 69 67 66 64 62 60 59 58 55 56 56 56 55 53 53 53 52 52 52 52 50 49 47 45 43 44 43 45 43 43 42
68 68 66 65 62 61 60 59 56 56 56 56 54 53 52 53 52 52 52 53 51 49 47 45 45 44 44 45 43 43 46 42

GFSFLT2_sfc_temp_021.txt.gz
Temp
67 68 69 70 69 69 69 70 70 70 70 71 71 71 71 72 72 72 71 71 71 71 71 71 71 71 70 68 67 68 65 66
65 67 69 68 69 69 69 69 70 70 70 70 70 70 71 71 71 71 71 71 72 71 71 71 70 70 70 68 68 68 63 63
65 67 67 67 68 70 70 70 70 70 70 70 68 68 68 70 69 70 71 70 70 71 71 70 69 69 69 68 68 65 64 61
65 67 68 68 73 67 66 70 68 68 68 68 68 67 67 71 69 69 70 69 70 70 70 68 70 67 66 67 65 65 63 61
67 68 69 70 70 68 68 67 66 68 68 68 68 69 68 67 67 66 68 68 67 69 68 68 66 65 64 64 64 64 60 60
69 70 70 70 70 67 67 68 67 65 66 68 66 64 63 63 63 62 63 63 63 64 63 65 64 65 65 63 63 62 62 59
69 69 70 69 69 69 69 66 65 66 66 66 65 64 62 62 62 62 62 62 62 62 62 62 62 63 62 63 63 62 62 60
67 68 68 70 68 66 64 62 63 63 62 63 64 62 61 61 61 61 61 61 61 60 59 58 58 60 60 61 61 60 60 60
66 67 67 68 65 63 61 61 61 60 60 62 62 62 61 60 59 58 59 59 59 59 58 57 57 60 58 59 59 58 58 59
70 72 66 65 62 61 60 61 60 59 59 59 61 62 61 59 58 57 58 58 57 56 55 55 54 54 53 54 54 56 57 58
69 67 65 63 62 61 62 62 60 59 59 60 62 63 63 59 57 57 59 57 55 56 54 53 51 51 55 53 51 51 53 58
69 66 64 62 61 61 61 61 60 60 60 60 62 62 62 58 57 56 56 55 54 53 52 52 50 49 57 54 49 50 51 49
66 64 63 63 60 59 60 59 59 58 59 61 60 60 60 57 56 55 55 53 52 52 50 49 49 48 46 46 48 49 50 48
64 65 64 64 65 65 62 60 59 59 59 58 59 59 59 59 56 54 54 53 51 50 48 47 47 46 44 41 39 43 45 48
63 64 65 65 65 63 61 59 57 56 55 56 58 60 60 57 54 52 51 50 49 48 47 47 44 45 46 42 37 34 38 43
64 65 64 65 64 64 63 58 55 54 55 55 55 56 56 56 53 51 49 48 48 47 51 46 44 41 43 48 42 40 34 33
63 64 64 63 63 61 59 57 55 53 52 52 53 53 54 54 52 50 48 47 47 47 46 44 43 41 40 40 40 39 39 35
66 63 60 59 59 56 55 54 52 51 50 49 50 50 50 50 52 49 48 48 46 45 44 44 42 42 41 40 39 38 36 35
60 59 58 58 56 54 53 52 51 50 49 48 49 48 47 47 48 47 46 47 47 46 44 42 42 40 40 40 40 40 40 38
58 58 57 56 55 54 53 52 50 50 50 50 48 47 47 47 47 47 47 47 46 45 43 42 42 40 40 39 39 39 40 39

GFSFLT2_sfc_temp_024.txt.gz
Temp
66 67 69 69 69 69 69 70 70 71 71 71 71 70 71 71 72 72 72 71 71 72 71 71 71 71 70 68 68 67 62 62
64 67 67 68 68 68 69 69 69 70 70 70 69 70 71 71 71 71 72 72 72 72 71 71 71 70 69 68 67 66 60 61
67 66 67 66 67 69 69 70 69 69 69 69 67 66 67 68 69 70 71 70 70 71 71 69 68 68 68 68 66 61 60 59
64 65 65 66 71 66 64 68 67 67 67 66 66 65 65 69 68 69 70 69 69 69 68 69 67 63 63 65 62 61 60 59
63 65 67 65 68 64 64 65 64 65 66 66 66 66 65 64 64 63 64 66 65 66 65 63 63 62 61 60 61 60 57 58
65 66 67 65 66 64 64 64 65 63 65 66 65 62 61 61 61 60 61 60 61 61 60 61 61 62 61 60 60 58 57 57
66 68 67 66 65 65 64 64 64 63 63 64 63 61 60 60 60 60 60 60 59 59 59 59 58 59 59 59 58 58 57 57
67 67 65 67 65 62 62 61 62 61 61 61 62 60 59 59 58 59 58 58 58 57 56 56 55 56 57 57 56 56 56 55
65 64 65 65 61 61 60 60 59 59 60 60 61 60 59 58 57 57 56 56 56 55 55 54 54 56 55 55 55 54 55 55
66 69 64 62 61 60 60 59 58 58 58 59 60 60 59 57 56 56 55 55 54 53 52 52 51 51 50 51 50 52 52 53
64 65 63 61 61 60 59 59 58 58 57 58 59 60 59 56 54 54 54 53 52 53 51 50 49 49 52 49 47 48 49 54
64 64 61 61 60 59 58 57 57 58 57 58 59 58 58 56 54 53 54 52 51 51 50 49 48 46 54 51 47 47 47 45
64 61 61 61 60 58 56 56 56 56 56 58 57 57 57 55 53 53 52 51 49 50 47 47 46 45 44 44 44 45 45 45
63 63 61 63 63 59 59 57 56 56 55 56 56 56 57 56 53 51 51 50 49 48 47 45 44 44 42 39 37 41 43 45
62 61 62 62 63 60 57 56 54 53 52 53 55 56 55 53 51 49 48 48 47 45 45 45 42 42 42 41 35 33 35 40
62 63 63 62 60 60 60 59 57 52 52 52 53 54 52 52 51 49 47 46 45 44 47 43 42 40 40 45 40 39 33 31
61 61 61 61 60 60 59 54 52 51 51 50 50 50 50 51 49 47 46 45 44 44 42 42 41 40 39 39 38 37 35 33
58 59 58 59 59 56 55 52 51 51 48 47 47 47 47 48 48 46 45 45 44 43 42 42 40 40 39 38 38 36 35 33
62 60 54 54 53 52 53 53 53 51 48 47 47 48 48 45 45 45 44 44 45 43 42 41 40 39 38 38 38 38 38 36
59 60 55 53 53 52 52 51 49 49 50 49 48 47 47 48 47 46 45 45 44 43 41 40 40 39 39 38 38 38 38 38

GFSFLT2_sfc_temp_027.txt.gz
Temp
67 68 70 70 69 69 69 70 70 71 71 71 71 70 71 71 71 72 72 71 71 71 71 71 70 70 69 67 67 67 61 62
63 64 65 66 69 69 69 69 69 69 70 69 69 70 70 70 70 71 72 72 71 71 70 70 70 69 68 66 66 65 59 59
63 64 65 65 66 68 69 70 69 69 69 69 67 65 65 66 69 70 70 70 70 70 69 68 67 67 67 66 64 59 58 58
63 64 64 65 70 65 65 67 65 65 65 65 64 64 65 67 67 69 68 68 68 68 67 67 64 61 60 63 58 58 58 58
62 65 64 64 66 63 63 63 63 64 64 64 63 63 63 63 63 63 62 65 63 63 62 61 61 59 58 58 58 57 54 56
63 63 63 63 63 62 62 63 63 63 63 64 62 60 60 60 60 59 59 58 58 58 57 58 58 58 58 57 57 55 54 54
63 64 63 63 63 62 62 63 62 61 62 63 61 59 58 59 58 58 58 57 57 56 56 56 56 56 56 56 56 54 54 53
64 64 64 63 62 61 61 61 61 60 60 61 61 59 58 58 56 56 56 56 55 54 54 53 53 54 54 54 53 52 52 52
64 63 63 62 61 60 61 59 59 59 59 60 60 59 58 56 55 54 54 54 54 53 53 52 52 54 52 52 51 51 51 51
64 67 63 60 59 59 58 58 58 57 57 57 58 59 57 55 54 53 53 53 52 51 51 50 49 49 48 47 47 49 50 50
63 63 61 60 59 58 58 57 57 57 57 57 58 58 57 54 52 52 52 51 51 52 48 48 47 46 50 46 45 45 46 51
62 61 59 59 58 58 56 55 56 56 56 56 57 56 56 53 52 51 51 50 49 49 48 47 45 44 52 48 43 44 44 43
61 59 59 60 58 57 54 54 54 54 55 56 55 55 54 52 51 51 50 49 47 48 45 45 44 43 43 43 41 42 43 42
61 61 59 61 62 57 57 55 54 54 54 54 54 54 54 53 50 49 49 47 47 46 45 43 42 42 40 38 36 40 41 42
61 61 60 61 60 58 54 53 53 52 51 51 52 53 52 50 49 47 46 46 44 43 43 43 41 40 40 40 34 32 34 38
62 62 61 61 60 59 58 55 55 51 50 50 50 50 50 50 48 47 45 44 44 43 45 41 40 39 39 43 39 37 33 31
60 61 60 61 59 57 55 53 51 50 49 48 47 47 49 49 48 46 45 44 43 43 42 41 40 39 38 38 36 35 34 32
59 60 60 59 60 56 54 52 50 49 46 46 45 45 45 47 47 46 48 47 43 42 41 41 39 39 38 37 36 35 34 31
59 58 55 57 58 53 52 52 53 52 49 47 45 45 45 45 48 48 47 47 44 43 43 40 39 38 38 37 37 36 36 34
59 56 53 53 52 51 50 51 52 52 51 47 47 48 47 48 48 48 46 45 43 42 41 39 39 38 37 36 38 36 36 36

GFSFLT2_sfc_temp_030.txt.gz
Temp
65 68 69 69 69 69 69 70 70 71 71 71 71 70 71 71 72 71 72 71 71 71 71 70 71 69 69 67 66 66 61 62
62 62 65 64 67 68 69 69 69 69 70 69 69 70 70 70 71 71 71 71 71 71 70 69 69 68 67 66 65 64 60 60
62 62 63 64 66 68 69 69 69 69 69 69 66 65 65 66 69 70 70 69 69 69 68 67 66 66 66 65 63 58 58 59
61 61 62 63 68 65 64 67 65 64 64 64 64 63 63 66 67 68 68 68 67 67 66 65 63 59 59 61 57 57 57 58
60 61 61 62 64 62 62 62 62 63 64 63 62 62 62 61 61 61 60 64 61 61 60 59 58 57 56 55 55 55 53 55
62 63 64 63 63 62 61 62 62 60 61 63 61 60 60 59 59 57 57 57 57 56 56 56 55 56 56 55 54 53 53 53
62 62 62 62 61 60 60 61 60 61 61 61 59 59 58 57 57 56 55 56 55 54 54 55 54 54 54 53 53 52 52 52
62 62 63 62 59 60 60 60 60 60 60 59 60 58 56 56 55 55 54 54 53 53 52 52 51 52 52 51 51 51 51 50
61 62 63 61 60 60 60 59 59 59 59 59 59 58 57 55 53 53 53 53 53 52 51 51 50 52 50 49 49 49 50 49
62 66 61 59 59 59 58 58 58 57 57 57 58 58 56 54 53 52 52 52 51 50 50 49 48 48 46 46 47 48 49 48
62 62 60 59 58 58 57 57 56 56 55 56 57 56 56 53 52 51 51 50 50 51 47 48 46 46 48 45 44 44 45 50
61 60 59 58 57 56 55 54 55 55 55 56 56 55 54 52 51 50 50 49 48 48 46 45 45 44 51 46 43 43 43 43
60 58 57 58 57 55 53 53 53 53 54 55 55 54 53 51 49 49 49 48 47 47 45 44 42 42 43 42 42 42 42 42
60 59 58 60 61 56 55 54 53 53 53 53 53 52 51 51 48 47 47 46 45 45 45 42 41 41 40 38 36 40 41 42
60 59 59 60 60 56 52 53 52 51 50 50 51 51 50 49 48 46 45 45 44 43 43 43 41 40 40 40 36 34 35 39
61 60 59 60 59 58 56 55 52 50 49 48 48 49 48 48 47 45 45 44 43 44 44 42 41 39 40 42 39 38 35 33
60 59 59 59 59 59 55 53 52 50 48 46 46 46 47 47 46 46 44 44 46 46 43 41 40 39 39 39 37 36 35 33
58 59 59 59 59 56 54 51 51 50 46 45 45 44 45 46 46 44 46 47 45 44 41 41 40 39 39 37 37 36 35 33
59 60 59 58 57 55 54 55 53 52 49 46 44 44 44 44 45 46 46 47 46 43 41 41 39 38 38 37 37 37 37 35
59 59 59 56 57 55 55 55 53 54 49 48 48 48 47 48 48 46 47 46 43 43 42 39 39 38 37 36 37 37 36 36

GFSFLT2_sfc_temp_033.txt.gz
Temp
67 67 68 69 69 69 70 70 71 71 71 71 71 71 71 71 72 72 72 71 71 71 71 70 70 69 68 66 66 67 76 76
63 63 64 65 67 68 69 69 69 70 70 70 69 70 71 71 71 71 71 71 71 70 70 69 68 67 66 65 65 66 75 76
61 61 62 66 68 70 70 70 69 69 70 68 69 76 75 75 70 70 70 68 68 68 67 66 66 66 65 65 67 74 74 75
60 61 61 67 70 67 69 69 69 70 72 72 74 73 73 74 71 67 67 67 66 66 66 66 69 73 72 68 72 71 73 74
61 61 61 63 66 66 68 67 68 68 68 70 69 71 72 73 72 72 71 68 71 70 70 71 68 71 70 69 69 70 72 73
60 61 61 64 66 67 66 70 67 67 68 70 71 71 70 70 70 69 69 68 67 68 68 66 67 67 67 66 67 69 71 71
62 63 64 66 65 66 66 68 70 71 71 72 72 70 68 69 67 68 68 69 68 68 68 68 66 66 66 66 65 65 66 70
65 66 68 67 66 67 69 69 70 69 70 70 69 69 66 67 67 68 68 69 69 69 68 67 66 66 64 64 64 65 65 66
66 66 68 67 66 67 66 68 68 69 69 68 68 68 67 66 67 66 66 66 66 66 65 65 65 64 62 63 64 63 64 64
67 68 68 67 67 68 67 67 68 67 66 66 67 67 66 66 66 65 65 66 66 65 64 64 64 64 62 62 63 62 61 61
68 68 67 66 67 68 67 67 67 67 65 66 66 66 66 66 66 64 64 64 63 64 62 64 63 63 61 61 61 61 60 62
69 68 68 67 67 65 66 65 65 65 66 68 66 66 65 64 63 62 63 63 62 63 61 61 61 62 62 59 58 59 61 60
68 67 66 66 64 65 64 61 62 63 66 65 64 65 64 63 63 62 63 63 61 61 60 58 59 59 59 59 57 57 57 59
67 68 66 67 69 68 67 64 63 65 65 64 64 63 63 62 61 62 62 61 59 59 58 57 59 57 58 56 54 54 56 56
68 68 67 67 68 67 63 61 60 61 62 62 63 62 63 62 61 60 59 60 59 58 57 56 55 54 54 57 53 52 53 55
68 68 67 67 66 66 63 63 62 62 60 61 61 60 60 61 60 59 58 58 57 57 55 52 55 54 54 56 55 54 51 49
67 67 66 66 64 64 62 62 62 59 58 57 57 58 59 59 59 57 57 57 56 55 53 53 55 55 56 54 53 53 51 48
66 64 65 64 63 64 62 61 58 56 53 53 55 57 56 57 58 57 57 56 54 54 49 49 54 54 55 53 53 51 51 48
65 63 62 60 61 61 62 60 59 58 53 50 51 54 55 55 56 56 55 53 51 47 49 53 53 53 52 53 53 52 52 50
65 64 63 61 61 62 61 61 61 58 54 52 53 56 57 56 56 56 55 52 51 53 54 53 52 52 51 51 53 52 51 50

GFSFLT2_sfc_temp_036.txt.gz
Temp
68 68 70 70 68 69 70 71 71 72 72 72 72 71 72 72 72 72 72 72 72 71 71 70 70 69 68 67 67 70 83 83
65 64 65 67 69 68 69 69 70 70 70 70 70 70 71 71 71 72 72 71 71 70 69 69 68 67 66 66 67 70 82 83
63 62 63 65 69 68 70 69 69 69 70 69 71 81 81 80 71 69 69 68 69 68 68 67 66 66 66 67 70 82 82 83
61 61 62 63 67 69 72 74 75 75 76 78 81 79 79 81 72 67 67 67 67 67 67 68 74 82 79 74 81 79 81 81
60 61 62 63 64 67 73 74 72 72 71 74 75 76 75 78 77 78 76 73 78 77 77 81 78 79 78 77 78 79 80 81
60 61 61 63 64 71 70 72 72 71 72 72 73 76 77 78 79 78 77 79 77 78 77 75 75 75 75 74 74 77 78 79
59 60 61 63 65 70 71 71 73 74 75 79 80 79 77 79 77 79 79 78 78 77 76 76 74 74 74 73 73 73 73 77
63 65 67 68 71 71 73 74 76 75 77 79 78 80 76 76 76 77 77 79 78 78 77 76 76 75 72 71 71 73 72 72
65 67 72 72 73 76 76 76 76 79 79 75 77 77 74 75 77 76 76 76 75 74 74 75 75 75 71 72 74 71 72 71
71 72 71 71 71 74 77 77 77 79 77 76 76 77 75 75 75 75 75 75 75 75 74 74 75 75 73 73 73 72 70 71
73 74 74 74 74 75 73 76 74 79 74 75 74 75 75 76 76 74 73 74 73 73 72 74 73 73 73 73 71 72 69 72
74 74 74 73 75 74 77 75 75 76 76 76 75 77 74 75 74 71 73 73 72 72 70 71 72 72 71 68 68 68 69 69
74 73 73 72 75 74 75 73 74 75 76 76 74 75 74 73 73 71 72 72 71 69 69 67 68 69 66 67 66 64 64 67
74 75 74 74 78 77 77 75 75 76 76 74 74 73 74 73 71 71 72 70 68 67 67 67 69 67 64 65 62 63 63 63
75 77 77 76 78 78 76 75 71 70 72 72 72 72 73 72 71 71 70 70 68 66 66 64 64 64 63 63 61 60 63 64
77 78 78 78 77 76 72 72 69 68 69 72 69 67 70 72 70 68 68 69 67 66 66 65 63 62 63 64 62 61 59 57
77 78 78 78 76 74 71 70 72 71 70 69 67 66 68 70 67 65 65 67 66 65 63 62 64 58 63 62 60 61 59 56
75 75 77 76 71 66 66 68 69 66 67 66 65 65 64 63 62 63 66 66 64 62 60 61 59 62 64 62 60 59 58 57
75 75 69 71 67 63 65 67 67 63 65 64 60 55 55 56 61 64 65 65 62 61 60 57 60 61 59 61 61 60 60 58
76 74 67 63 62 65 66 67 68 66 68 59 54 53 55 60 62 65 65 56 59 58 59 54 57 60 58 59 60 59 59 57

GFSFLT2_sfc_temp_042.txt.gz
Temp
68 68 70 69 69 70 70 71 71 71 71 71 71 71 71 72 72 72 72 71 71 70 70 69 70 69 70 69 69 70 70 73
65 66 67 68 69 69 70 70 69 70 70 70 70 70 71 71 71 71 71 71 70 70 69 69 69 69 69 69 69 68 72 72
65 65 64 66 68 69 70 70 69 69 70 69 70 71 72 73 69 69 70 69 69 69 68 68 68 68 69 69 69 70 71 70
62 64 65 67 70 69 69 70 71 71 71 70 71 70 71 70 68 67 67 67 68 68 68 68 68 67 66 68 68 69 69 67
61 61 62 63 66 67 67 68 71 70 68 70 69 69 68 66 65 66 65 67 68 68 66 67 69 68 67 66 67 67 65 65
59 61 61 61 62 63 64 64 65 68 70 69 69 68 67 66 66 67 66 68 66 67 66 67 68 69 68 66 66 64 64 63
57 59 59 59 59 60 62 63 65 67 69 69 69 68 68 67 67 68 68 69 68 67 67 67 67 67 66 66 66 65 65 63
57 57 58 59 59 60 59 61 64 65 67 68 70 68 68 69 69 70 69 69 69 68 67 66 65 65 64 65 65 64 65 64
57 58 59 58 59 60 61 63 67 68 69 69 70 71 70 70 69 68 68 69 69 67 67 66 64 66 64 64 64 64 63 63
60 61 59 58 59 58 59 62 68 72 70 69 71 73 71 69 68 68 69 68 67 65 64 64 63 63 61 61 62 63 63 63
61 60 59 58 59 60 63 67 69 70 69 70 70 72 71 69 69 69 68 67 65 66 64 63 61 61 62 61 60 59 61 66
63 61 61 61 60 62 68 69 70 70 69 68 70 72 72 69 68 67 67 65 64 64 62 62 61 60 68 64 59 59 59 57
66 62 62 64 65 66 66 64 67 67 68 70 70 70 70 68 67 66 65 65 63 63 61 59 58 59 56 57 56 57 57 57
66 67 68 68 68 68 68 68 68 70 69 69 70 69 71 69 67 63 65 64 63 61 60 57 58 58 54 54 50 51 54 56
68 69 69 69 71 72 72 70 69 70 70 67 69 69 70 69 67 65 64 63 60 60 59 58 55 55 57 53 48 47 49 52
70 71 72 72 72 72 70 70 68 68 68 69 69 69 69 68 68 65 64 63 61 60 62 60 57 54 55 61 55 52 46 45
71 72 74 72 71 71 69 69 68 68 67 68 68 66 66 65 65 63 62 61 62 59 60 59 58 53 56 56 55 51 50 46
71 72 74 74 72 71 69 65 68 65 64 63 64 62 63 63 65 61 61 61 59 58 58 58 54 53 54 54 54 52 48 47
73 73 73 74 71 70 69 68 66 65 63 63 60 60 60 60 61 60 57 58 58 58 57 55 54 51 54 54 54 55 55 53
74 73 73 74 72 70 70 69 67 65 65 63 61 61 61 61 61 57 57 57 56 57 56 54 53 53 53 52 53 53 54 52

GFSFLT2_sfc_temp_045.txt.gz
Temp
67 69 70 69 69 69 70 71 71 71 71 71 71 71 71 72 72 72 71 71 71 70 70 70 70 70 70 69 68 70 67 67
65 66 66 67 68 68 69 69 69 70 70 70 69 70 70 71 71 71 71 71 70 70 69 70 70 70 69 68 68 69 66 65
64 63 64 65 66 69 70 70 70 69 70 69 68 68 68 69 69 70 70 69 69 69 69 69 69 68 69 69 67 64 64 63
63 62 63 64 67 66 68 69 70 69 69 67 68 66 67 68 68 68 68 68 68 68 68 68 68 64 63 66 64 63 62 61
63 63 63 64 65 66 67 65 67 67 67 67 67 65 65 65 65 65 64 66 66 66 66 66 65 63 63 62 62 60 59 60
61 62 63 63 63 64 64 63 66 65 67 68 66 64 64 64 65 64 64 64 64 63 63 63 63 65 64 63 62 59 57 57
58 59 60 60 61 62 62 63 64 64 66 67 66 66 64 64 64 64 64 63 62 62 63 64 63 64 63 62 61 60 59 57
57 57 58 60 60 61 60 60 61 62 65 66 67 66 65 64 64 64 63 64 64 64 63 63 62 62 62 62 61 60 60 57
56 56 58 57 58 60 60 61 64 64 67 68 67 67 66 66 66 64 65 64 65 63 63 61 59 61 60 60 62 60 60 60
57 59 58 57 58 58 59 59 59 64 66 66 67 68 66 65 63 64 66 63 63 62 61 60 58 58 57 56 57 59 60 61
57 58 58 58 58 58 60 61 60 66 65 64 66 68 68 65 62 62 64 63 62 63 60 59 57 56 58 56 56 56 58 62
58 59 60 60 60 62 63 62 65 64 63 63 65 66 67 65 62 62 64 62 60 59 59 57 56 56 64 60 54 55 54 54
57 57 58 59 59 57 60 59 62 65 63 66 65 64 66 64 62 63 63 61 60 60 58 57 55 54 53 53 52 52 53 53
57 58 58 59 61 62 62 63 65 67 65 64 64 64 64 63 61 60 60 60 58 57 57 54 54 54 51 49 47 49 50 52
58 59 60 60 62 64 64 62 60 61 63 62 65 66 66 64 62 61 59 59 57 56 56 55 52 52 53 51 45 44 45 48
63 62 62 63 65 65 64 63 63 63 62 65 64 66 65 64 63 61 59 60 58 58 59 57 56 54 53 55 51 50 45 44
64 65 66 67 66 66 63 64 63 62 62 62 62 62 63 62 61 59 59 58 58 58 57 56 56 54 54 52 52 52 48 47
64 64 66 67 66 65 63 61 63 60 60 61 59 60 58 60 60 59 58 58 57 57 57 56 54 54 53 52 52 50 50 47
65 65 65 67 67 66 65 63 62 63 63 60 59 58 57 58 58 57 57 56 57 57 55 55 53 52 52 51 53 53 53 52
66 66 66 67 67 66 67 67 66 63 63 61 61 60 60 60 58 57 57 56 55 55 54 52 53 51 51 51 51 52 52 51

GFSFLT2_sfc_temp_048.txt.gz
Temp
67 67 69 66 66 69 70 71 71 71 72 72 72 72 72 72 72 72 71 71 71 71 70 70 71 70 68 68 67 67 62 64
65 66 66 64 63 66 68 69 69 70 70 70 70 70 71 71 71 71 71 71 70 71 70 70 69 69 69 68 67 66 61 61
64 65 64 64 63 66 70 69 69 69 69 68 67 68 68 68 69 69 70 69 69 70 69 68 67 67 68 67 66 60 60 60
63 63 63 63 63 63 66 69 70 68 67 66 66 66 67 68 68 68 68 68 68 69 68 68 66 61 61 64 60 60 59 60
62 63 62 62 61 62 64 65 66 66 66 66 66 65 65 65 66 66 65 66 65 66 65 64 65 62 61 60 59 59 57 59
62 62 63 62 62 64 65 64 66 65 66 65 64 63 64 63 61 62 63 63 61 62 61 62 62 62 61 59 59 57 56 57
61 63 63 63 63 64 63 64 63 64 66 64 64 64 62 60 59 61 63 62 60 61 61 61 61 61 61 61 59 57 57 57
59 61 62 63 64 62 62 63 63 64 66 65 64 63 62 63 61 62 62 61 61 62 61 60 60 60 60 60 58 58 58 57
57 58 59 60 60 60 60 62 63 66 65 65 64 65 63 63 62 60 61 62 62 61 61 60 59 60 59 58 58 58 57 57
58 59 57 58 59 59 59 59 60 64 64 63 63 65 64 62 61 61 62 61 61 60 59 57 56 56 55 55 56 57 57 56
56 57 57 58 58 58 60 60 61 64 64 63 65 66 65 63 61 60 62 62 60 61 58 58 55 54 55 53 53 54 56 59
58 57 56 58 60 60 60 59 61 63 64 63 64 64 65 62 61 61 61 60 59 58 58 55 55 54 61 57 51 52 53 52
58 57 57 59 60 59 59 59 61 62 62 60 62 62 64 62 60 60 60 60 60 58 56 55 52 53 52 51 50 50 51 51
55 56 57 60 61 62 62 61 61 63 63 61 63 61 62 63 61 60 59 58 57 56 56 52 53 52 51 48 47 49 50 51
55 56 57 58 59 59 59 57 60 61 63 62 61 62 63 63 61 60 59 59 58 55 54 55 54 53 54 52 45 46 44 47
57 57 57 58 59 59 58 58 57 61 63 64 62 62 62 63 62 60 59 57 56 57 57 54 54 53 54 55 54 51 48 45
57 58 59 60 59 60 60 59 61 59 58 59 61 60 61 61 61 59 58 59 57 55 54 54 54 54 54 52 52 51 50 47
58 57 59 60 60 59 59 59 60 57 57 59 60 61 61 60 60 59 59 59 56 55 55 54 54 52 54 52 51 50 48 46
60 59 59 61 61 61 61 61 60 58 60 60 59 59 57 59 60 58 58 57 55 55 55 53 53 52 51 50 52 50 52 51
61 60 61 62 62 62 63 63 63 61 62 61 60 60 59 60 59 58 56 57 55 54 54 54 53 52 52 51 51 51 52 51